Time,TemperatureF,DewpointF,PressureIn,WindDirection,WindDirectionDegrees,WindSpeedMPH,WindSpeedGustMPH,Humidity,HourlyPrecipIn,Conditions,Clouds,dailyrainin,SoftwareType,DateUTC
2013-07-23 00:00:00,77.4,71.5,29.78,ESE,120,0.0,0.0,82,0.00,,---,0.00,VWS V14.01,2013-07-23 04:00:00,
2013-07-23 00:01:00,77.4,71.5,29.78,ESE,120,0.0,0.0,82,0.00,,---,0.00,VWS V14.01,2013-07-23 04:01:00,
2013-07-23 00:05:00,77.4,71.5,29.78,SSE,158,0.0,1.0,82,0.00,,---,0.00,VWS V14.01,2013-07-23 04:05:00,
2013-07-23 00:06:00,77.2,71.3,29.78,SSE,158,0.0,0.0,82,0.00,,---,0.00,VWS V14.01,2013-07-23 04:06:00,
2013-07-23 00:10:00,77.2,71.3,29.78,SSE,158,0.0,0.0,82,0.00,,---,0.00,VWS V14.01,2013-07-23 04:10:00,
2013-07-23 00:11:00,77.2,71.3,29.78,SSE,158,0.0,0.0,82,0.00,,---,0.00,VWS V14.01,2013-07-23 04:11:00,
2013-07-23 00:15:00,77.2,71.3,29.78,SSE,158,0.0,0.0,82,0.00,,---,0.00,VWS V14.01,2013-07-23 04:15:00,
2013-07-23 00:16:00,77.2,71.3,29.78,SSE,158,0.0,0.0,82,0.00,,---,0.00,VWS V14.01,2013-07-23 04:16:00,
2013-07-23 00:20:00,77.2,71.6,29.78,SSE,155,0.0,0.0,83,0.00,,---,0.00,VWS V14.01,2013-07-23 04:20:00,
2013-07-23 00:21:00,77.0,71.1,29.78,SSE,158,0.0,0.0,82,0.00,,---,0.00,VWS V14.01,2013-07-23 04:21:00,
2013-07-23 00:25:00,77.0,71.1,29.78,SSE,155,0.0,0.0,82,0.00,,---,0.00,VWS V14.01,2013-07-23 04:25:00,
2013-07-23 00:26:00,77.0,71.1,29.78,SSE,154,0.0,0.0,82,0.00,,---,0.00,VWS V14.01,2013-07-23 04:26:00,
2013-07-23 00:30:00,77.0,71.4,29.78,SSE,154,0.0,0.0,83,0.00,,---,0.00,VWS V14.01,2013-07-23 04:30:00,
2013-07-23 00:31:00,77.0,71.1,29.78,SSE,154,0.0,0.0,82,0.00,,---,0.00,VWS V14.01,2013-07-23 04:31:00,
2013-07-23 00:35:00,76.8,70.9,29.78,SSE,154,0.0,0.0,82,0.00,,---,0.00,VWS V14.01,2013-07-23 04:35:00,
2013-07-23 00:36:00,76.8,70.9,29.78,SSE,154,0.0,0.0,82,0.00,,---,0.00,VWS V14.01,2013-07-23 04:36:00,
2013-07-23 00:40:00,76.8,70.9,29.78,SE,131,0.0,2.0,82,0.00,,---,0.00,VWS V14.01,2013-07-23 04:40:00,
2013-07-23 00:41:00,76.8,70.9,29.78,SE,131,0.0,0.0,82,0.00,,---,0.00,VWS V14.01,2013-07-23 04:41:00,
2013-07-23 00:45:00,76.8,70.9,29.78,SE,131,0.0,0.0,82,0.00,,---,0.00,VWS V14.01,2013-07-23 04:45:00,
2013-07-23 00:46:00,76.8,70.9,29.78,SE,131,0.0,0.0,82,0.00,,---,0.00,VWS V14.01,2013-07-23 04:46:00,
2013-07-23 00:50:00,76.8,70.9,29.78,SE,131,0.0,0.0,82,0.00,,---,0.00,VWS V14.01,2013-07-23 04:50:00,
2013-07-23 00:51:00,76.8,70.9,29.78,SE,131,0.0,0.0,82,0.00,,---,0.00,VWS V14.01,2013-07-23 04:51:00,
2013-07-23 00:55:00,76.8,71.2,29.78,SE,131,0.0,0.0,83,0.00,,---,0.00,VWS V14.01,2013-07-23 04:55:00,
2013-07-23 00:56:00,76.8,71.2,29.78,SE,131,0.0,0.0,83,0.00,,---,0.00,VWS V14.01,2013-07-23 04:56:00,
2013-07-23 01:00:00,76.8,70.9,29.77,ESE,119,0.0,1.0,82,0.00,,---,0.00,VWS V14.01,2013-07-23 05:00:00,
2013-07-23 01:01:00,76.8,70.9,29.77,ESE,119,0.0,0.0,82,0.00,,---,0.00,VWS V14.01,2013-07-23 05:01:00,
2013-07-23 01:05:00,76.8,70.9,29.77,ESE,119,0.0,1.0,82,0.00,,---,0.00,VWS V14.01,2013-07-23 05:05:00,
2013-07-23 01:06:00,76.8,70.9,29.77,ESE,119,0.0,0.0,82,0.00,,---,0.00,VWS V14.01,2013-07-23 05:06:00,
2013-07-23 01:10:00,76.7,70.8,29.77,ESE,119,0.0,0.0,82,0.00,,---,0.00,VWS V14.01,2013-07-23 05:10:00,
2013-07-23 01:11:00,76.7,70.8,29.77,ESE,119,0.0,0.0,82,0.00,,---,0.00,VWS V14.01,2013-07-23 05:11:00,
2013-07-23 01:15:00,76.7,71.2,29.76,ESE,119,0.0,1.0,83,0.00,,---,0.00,VWS V14.01,2013-07-23 05:15:00,
2013-07-23 01:16:00,76.7,71.2,29.76,ESE,119,0.0,0.0,83,0.00,,---,0.00,VWS V14.01,2013-07-23 05:16:00,
2013-07-23 01:20:00,77.0,71.1,29.78,SSE,158,0.0,0.0,82,0.00,,---,0.00,VWS V14.01,2013-07-23 05:20:00,
2013-07-23 01:21:00,76.5,71.0,29.76,ESE,119,0.0,0.0,83,0.00,,---,0.00,VWS V14.01,2013-07-23 05:21:00,
2013-07-23 01:25:00,76.5,71.3,29.76,ESE,119,0.0,0.0,84,0.00,,---,0.00,VWS V14.01,2013-07-23 05:25:00,
2013-07-23 01:26:00,76.5,71.3,29.76,ESE,119,0.0,0.0,84,0.00,,---,0.00,VWS V14.01,2013-07-23 05:26:00,
2013-07-23 01:30:00,76.3,71.1,29.76,ESE,120,0.0,0.0,84,0.00,,---,0.00,VWS V14.01,2013-07-23 05:30:00,
2013-07-23 01:31:00,76.3,71.1,29.76,SSE,152,1.0,2.0,84,0.00,,---,0.00,VWS V14.01,2013-07-23 05:31:00,
2013-07-23 01:35:00,76.3,71.1,29.76,ESE,119,1.0,3.0,84,0.00,,---,0.00,VWS V14.01,2013-07-23 05:35:00,
2013-07-23 01:36:00,76.3,71.1,29.76,ESE,119,0.0,1.0,84,0.00,,---,0.00,VWS V14.01,2013-07-23 05:36:00,
2013-07-23 01:40:00,76.3,71.1,29.76,ESE,119,0.0,1.0,84,0.00,,---,0.00,VWS V14.01,2013-07-23 05:40:00,
2013-07-23 01:41:00,76.3,71.1,29.76,ESE,119,0.0,0.0,84,0.00,,---,0.00,VWS V14.01,2013-07-23 05:41:00,
2013-07-23 01:45:00,76.1,70.9,29.75,ESE,104,0.0,1.0,84,0.00,,---,0.00,VWS V14.01,2013-07-23 05:45:00,
2013-07-23 01:46:00,76.1,70.9,29.75,ESE,104,0.0,0.0,84,0.00,,---,0.00,VWS V14.01,2013-07-23 05:46:00,
2013-07-23 01:50:00,76.8,70.9,29.78,SE,131,0.0,0.0,82,0.00,,---,0.00,VWS V14.01,2013-07-23 05:50:00,
2013-07-23 01:51:00,76.1,70.9,29.75,ESE,104,0.0,0.0,84,0.00,,---,0.00,VWS V14.01,2013-07-23 05:51:00,
2013-07-23 01:55:00,76.1,70.9,29.75,ESE,104,0.0,0.0,84,0.00,,---,0.00,VWS V14.01,2013-07-23 05:55:00,
2013-07-23 01:56:00,76.1,70.9,29.75,ESE,104,0.0,0.0,84,0.00,,---,0.00,VWS V14.01,2013-07-23 05:56:00,
2013-07-23 02:00:00,76.8,70.9,29.77,ESE,119,0.0,1.0,82,0.00,,---,0.00,VWS V14.01,2013-07-23 06:00:00,
2013-07-23 02:01:00,76.1,70.9,29.75,ESE,110,1.0,2.0,84,0.00,,---,0.00,VWS V14.01,2013-07-23 06:01:00,
2013-07-23 02:05:00,76.1,70.9,29.75,ESE,110,0.0,3.0,84,0.00,,---,0.00,VWS V14.01,2013-07-23 06:05:00,
2013-07-23 02:06:00,76.1,70.9,29.75,ESE,110,0.0,0.0,84,0.00,,---,0.00,VWS V14.01,2013-07-23 06:06:00,
2013-07-23 02:10:00,76.1,71.3,29.75,NE,52,0.0,2.0,85,0.00,,---,0.00,VWS V14.01,2013-07-23 06:10:00,
2013-07-23 02:11:00,76.1,71.3,29.75,NE,52,0.0,0.0,85,0.00,,---,0.00,VWS V14.01,2013-07-23 06:11:00,
2013-07-23 02:15:00,76.0,71.2,29.74,NE,56,0.0,0.0,85,0.00,,---,0.00,VWS V14.01,2013-07-23 06:15:00,
2013-07-23 02:16:00,76.0,71.2,29.74,NE,56,0.0,0.0,85,0.00,,---,0.00,VWS V14.01,2013-07-23 06:16:00,
2013-07-23 02:20:00,76.0,71.2,29.74,ESE,102,0.0,2.0,85,0.00,,---,0.00,VWS V14.01,2013-07-23 06:20:00,
2013-07-23 02:21:00,76.0,71.2,29.74,ESE,103,0.0,0.0,85,0.00,,---,0.00,VWS V14.01,2013-07-23 06:21:00,
2013-07-23 02:25:00,76.0,71.2,29.74,ESE,102,0.0,1.0,85,0.00,,---,0.00,VWS V14.01,2013-07-23 06:25:00,
2013-07-23 02:26:00,76.0,71.2,29.74,ESE,102,0.0,0.0,85,0.00,,---,0.00,VWS V14.01,2013-07-23 06:26:00,
2013-07-23 02:30:00,76.3,71.1,29.76,ESE,120,0.0,0.0,84,0.00,,---,0.00,VWS V14.01,2013-07-23 06:30:00,
2013-07-23 02:31:00,76.0,71.2,29.74,SE,143,0.0,0.0,85,0.00,,---,0.00,VWS V14.01,2013-07-23 06:31:00,
2013-07-23 02:35:00,76.0,71.2,29.74,ESE,109,0.0,0.0,85,0.00,,---,0.00,VWS V14.01,2013-07-23 06:35:00,
2013-07-23 02:36:00,76.0,71.2,29.74,ESE,109,0.0,0.0,85,0.00,,---,0.00,VWS V14.01,2013-07-23 06:36:00,
2013-07-23 02:40:00,75.8,71.0,29.74,ESE,107,0.0,0.0,85,0.00,,---,0.00,VWS V14.01,2013-07-23 06:40:00,
2013-07-23 02:41:00,75.8,71.0,29.74,ESE,107,0.0,0.0,85,0.00,,---,0.00,VWS V14.01,2013-07-23 06:41:00,
2013-07-23 02:45:00,75.8,71.0,29.73,ESE,107,0.0,2.0,85,0.00,,---,0.00,VWS V14.01,2013-07-23 06:45:00,
2013-07-23 02:46:00,75.8,71.0,29.73,ESE,107,0.0,0.0,85,0.00,,---,0.00,VWS V14.01,2013-07-23 06:46:00,
2013-07-23 02:50:00,76.1,70.9,29.75,ESE,104,0.0,0.0,84,0.00,,---,0.00,VWS V14.01,2013-07-23 06:50:00,
2013-07-23 02:51:00,75.8,71.0,29.73,South,169,0.0,0.0,85,0.00,,---,0.00,VWS V14.01,2013-07-23 06:51:00,
2013-07-23 02:55:00,76.1,70.9,29.75,ESE,104,0.0,0.0,84,0.00,,---,0.00,VWS V14.01,2013-07-23 06:55:00,
2013-07-23 02:56:00,76.0,71.2,29.73,South,171,0.0,0.0,85,0.00,,---,0.00,VWS V14.01,2013-07-23 06:56:00,
2013-07-23 03:00:00,75.8,71.0,29.73,SSE,155,1.0,1.0,85,0.00,,---,0.00,VWS V14.01,2013-07-23 07:00:00,
2013-07-23 03:01:00,75.8,71.0,29.73,SSE,155,1.0,1.0,85,0.00,,---,0.00,VWS V14.01,2013-07-23 07:01:00,
2013-07-23 03:05:00,75.8,71.0,29.73,SE,127,0.0,2.0,85,0.00,,---,0.00,VWS V14.01,2013-07-23 07:05:00,
2013-07-23 03:06:00,75.8,71.0,29.73,SE,127,0.0,0.0,85,0.00,,---,0.00,VWS V14.01,2013-07-23 07:06:00,
2013-07-23 03:10:00,75.8,70.6,29.73,SE,127,0.0,0.0,84,0.00,,---,0.00,VWS V14.01,2013-07-23 07:10:00,
2013-07-23 03:11:00,75.8,70.6,29.73,SE,127,0.0,0.0,84,0.00,,---,0.00,VWS V14.01,2013-07-23 07:11:00,
2013-07-23 03:15:00,75.8,71.0,29.72,SE,124,0.0,0.0,85,0.00,,---,0.00,VWS V14.01,2013-07-23 07:15:00,
2013-07-23 03:16:00,75.8,71.0,29.72,SE,124,0.0,0.0,85,0.00,,---,0.00,VWS V14.01,2013-07-23 07:16:00,
2013-07-23 03:20:00,75.8,71.0,29.72,SE,137,0.0,0.0,85,0.00,,---,0.00,VWS V14.01,2013-07-23 07:20:00,
2013-07-23 03:21:00,75.8,71.0,29.72,SE,137,0.0,0.0,85,0.00,,---,0.00,VWS V14.01,2013-07-23 07:21:00,
2013-07-23 03:25:00,75.8,71.0,29.72,NW,311,0.0,0.0,85,0.00,,---,0.00,VWS V14.01,2013-07-23 07:25:00,
2013-07-23 03:26:00,75.8,71.0,29.72,NW,311,0.0,0.0,85,0.00,,---,0.00,VWS V14.01,2013-07-23 07:26:00,
2013-07-23 03:30:00,75.8,71.0,29.71,SE,141,0.0,3.0,85,0.00,,---,0.00,VWS V14.01,2013-07-23 07:30:00,
2013-07-23 03:31:00,75.8,71.0,29.71,SE,141,0.0,0.0,85,0.00,,---,0.00,VWS V14.01,2013-07-23 07:31:00,
2013-07-23 03:35:00,75.8,70.6,29.71,SE,141,0.0,0.0,84,0.00,,---,0.00,VWS V14.01,2013-07-23 07:35:00,
2013-07-23 03:36:00,75.8,70.6,29.71,SE,141,0.0,0.0,84,0.00,,---,0.00,VWS V14.01,2013-07-23 07:36:00,
2013-07-23 03:40:00,75.8,71.0,29.71,SE,137,0.0,0.0,85,0.00,,---,0.00,VWS V14.01,2013-07-23 07:40:00,
2013-07-23 03:41:00,75.8,71.0,29.71,SE,137,0.0,0.0,85,0.00,,---,0.00,VWS V14.01,2013-07-23 07:41:00,
2013-07-23 03:45:00,75.6,70.8,29.71,SE,128,0.0,2.0,85,0.00,,---,0.00,VWS V14.01,2013-07-23 07:45:00,
2013-07-23 03:46:00,75.6,70.8,29.71,SE,128,0.0,0.0,85,0.00,,---,0.00,VWS V14.01,2013-07-23 07:46:00,
2013-07-23 03:50:00,75.6,70.8,29.71,SE,128,0.0,0.0,85,0.00,,---,0.00,VWS V14.01,2013-07-23 07:50:00,
2013-07-23 03:51:00,75.6,70.8,29.71,SE,130,0.0,0.0,85,0.00,,---,0.00,VWS V14.01,2013-07-23 07:51:00,
2013-07-23 03:55:00,75.6,70.8,29.71,South,179,0.0,2.0,85,0.00,,---,0.00,VWS V14.01,2013-07-23 07:55:00,
2013-07-23 03:56:00,75.6,70.8,29.71,South,179,0.0,0.0,85,0.00,,---,0.00,VWS V14.01,2013-07-23 07:56:00,
2013-07-23 04:00:00,75.6,70.8,29.70,East,88,0.0,5.0,85,0.00,,---,0.00,VWS V14.01,2013-07-23 08:00:00,
2013-07-23 04:01:00,75.6,70.8,29.70,East,88,0.0,0.0,85,0.00,,---,0.00,VWS V14.01,2013-07-23 08:01:00,
2013-07-23 04:05:00,75.4,70.6,29.70,East,88,0.0,0.0,85,0.00,,---,0.00,VWS V14.01,2013-07-23 08:05:00,
2013-07-23 04:06:00,75.4,70.6,29.70,East,88,0.0,0.0,85,0.00,,---,0.00,VWS V14.01,2013-07-23 08:06:00,
2013-07-23 04:10:00,75.4,70.6,29.70,East,89,0.0,1.0,85,0.00,,---,0.00,VWS V14.01,2013-07-23 08:10:00,
2013-07-23 04:11:00,75.4,70.6,29.70,East,89,0.0,0.0,85,0.00,,---,0.00,VWS V14.01,2013-07-23 08:11:00,
2013-07-23 04:15:00,75.4,70.6,29.71,East,89,0.0,0.0,85,0.00,,---,0.00,VWS V14.01,2013-07-23 08:15:00,
2013-07-23 04:16:00,75.4,70.6,29.71,East,89,0.0,0.0,85,0.00,,---,0.00,VWS V14.01,2013-07-23 08:16:00,
2013-07-23 04:20:00,75.4,70.6,29.71,ESE,121,0.0,3.0,85,0.00,,---,0.00,VWS V14.01,2013-07-23 08:20:00,
2013-07-23 04:21:00,75.4,70.6,29.71,ESE,121,0.0,0.0,85,0.00,,---,0.00,VWS V14.01,2013-07-23 08:21:00,
2013-07-23 04:25:00,75.3,70.8,29.71,ESE,123,0.0,0.0,86,0.00,,---,0.00,VWS V14.01,2013-07-23 08:25:00,
2013-07-23 04:26:00,75.3,70.8,29.71,ESE,123,0.0,0.0,86,0.00,,---,0.00,VWS V14.01,2013-07-23 08:26:00,
2013-07-23 04:30:00,75.3,70.8,29.70,ESE,123,0.0,0.0,86,0.00,,---,0.00,VWS V14.01,2013-07-23 08:30:00,
2013-07-23 04:31:00,75.3,70.8,29.70,ESE,123,0.0,0.0,86,0.00,,---,0.00,VWS V14.01,2013-07-23 08:31:00,
2013-07-23 04:35:00,75.1,70.6,29.70,ESE,121,0.0,0.0,86,0.00,,---,0.00,VWS V14.01,2013-07-23 08:35:00,
2013-07-23 04:36:00,75.1,70.6,29.70,ESE,121,0.0,0.0,86,0.00,,---,0.00,VWS V14.01,2013-07-23 08:36:00,
2013-07-23 04:40:00,75.1,71.0,29.70,ESE,117,0.0,1.0,87,0.00,,---,0.00,VWS V14.01,2013-07-23 08:40:00,
2013-07-23 04:41:00,75.1,71.0,29.70,ESE,117,0.0,0.0,87,0.00,,---,0.00,VWS V14.01,2013-07-23 08:41:00,
2013-07-23 04:45:00,75.1,70.6,29.71,ESE,114,0.0,1.0,86,0.00,,---,0.00,VWS V14.01,2013-07-23 08:45:00,
2013-07-23 04:46:00,75.1,70.6,29.71,ESE,114,0.0,0.0,86,0.00,,---,0.00,VWS V14.01,2013-07-23 08:46:00,
2013-07-23 04:50:00,75.1,70.6,29.71,ESE,113,0.0,2.0,86,0.00,,---,0.00,VWS V14.01,2013-07-23 08:50:00,
2013-07-23 04:51:00,75.1,70.6,29.71,ESE,113,0.0,0.0,86,0.00,,---,0.00,VWS V14.01,2013-07-23 08:51:00,
2013-07-23 04:55:00,75.1,70.6,29.71,ESE,113,0.0,0.0,86,0.00,,---,0.00,VWS V14.01,2013-07-23 08:55:00,
2013-07-23 04:56:00,75.1,70.6,29.71,ESE,113,0.0,0.0,86,0.00,,---,0.00,VWS V14.01,2013-07-23 08:56:00,
2013-07-23 05:00:00,74.9,70.8,29.72,ESE,117,0.0,2.0,87,0.00,,---,0.00,VWS V14.01,2013-07-23 09:00:00,
2013-07-23 05:01:00,74.9,70.8,29.72,ESE,117,0.0,0.0,87,0.00,,---,0.00,VWS V14.01,2013-07-23 09:01:00,
2013-07-23 05:05:00,74.9,70.8,29.72,SE,126,0.0,3.0,87,0.00,,---,0.00,VWS V14.01,2013-07-23 09:05:00,
2013-07-23 05:06:00,74.9,70.8,29.72,SE,126,0.0,0.0,87,0.00,,---,0.00,VWS V14.01,2013-07-23 09:06:00,
2013-07-23 05:10:00,74.9,70.8,29.72,ESE,120,0.0,0.0,87,0.00,,---,0.00,VWS V14.01,2013-07-23 09:10:00,
2013-07-23 05:11:00,74.9,70.8,29.72,ESE,120,0.0,0.0,87,0.00,,---,0.00,VWS V14.01,2013-07-23 09:11:00,
2013-07-23 05:15:00,75.1,71.0,29.72,ESE,120,0.0,0.0,87,0.00,,---,0.00,VWS V14.01,2013-07-23 09:15:00,
2013-07-23 05:16:00,75.1,71.0,29.72,ESE,120,0.0,0.0,87,0.00,,---,0.00,VWS V14.01,2013-07-23 09:16:00,
2013-07-23 05:20:00,75.1,71.0,29.72,ESE,119,0.0,0.0,87,0.00,,---,0.00,VWS V14.01,2013-07-23 09:20:00,
2013-07-23 05:21:00,75.1,71.0,29.72,ESE,119,0.0,0.0,87,0.00,,---,0.00,VWS V14.01,2013-07-23 09:21:00,
2013-07-23 05:25:00,75.1,71.0,29.72,ESE,119,0.0,1.0,87,0.00,,---,0.00,VWS V14.01,2013-07-23 09:25:00,
2013-07-23 05:26:00,75.1,71.0,29.72,ESE,119,0.0,0.0,87,0.00,,---,0.00,VWS V14.01,2013-07-23 09:26:00,
2013-07-23 05:30:00,75.1,71.0,29.72,ESE,109,0.0,1.0,87,0.00,,---,0.00,VWS V14.01,2013-07-23 09:30:00,
2013-07-23 05:31:00,75.1,71.0,29.72,ESE,109,0.0,0.0,87,0.00,,---,0.00,VWS V14.01,2013-07-23 09:31:00,
2013-07-23 05:35:00,75.1,70.6,29.70,ESE,121,0.0,0.0,86,0.00,,---,0.00,VWS V14.01,2013-07-23 09:35:00,
2013-07-23 05:36:00,74.9,70.8,29.72,ESE,107,0.0,0.0,87,0.00,,---,0.00,VWS V14.01,2013-07-23 09:36:00,
2013-07-23 05:40:00,75.1,71.0,29.70,ESE,117,0.0,1.0,87,0.00,,---,0.00,VWS V14.01,2013-07-23 09:40:00,
2013-07-23 05:41:00,75.1,71.0,29.72,ESE,107,0.0,0.0,87,0.00,,---,0.00,VWS V14.01,2013-07-23 09:41:00,
2013-07-23 05:45:00,75.1,71.0,29.73,ESE,107,0.0,0.0,87,0.00,,---,0.00,VWS V14.01,2013-07-23 09:45:00,
2013-07-23 05:46:00,75.1,71.0,29.73,ESE,107,0.0,0.0,87,0.00,,---,0.00,VWS V14.01,2013-07-23 09:46:00,
2013-07-23 05:50:00,75.1,71.0,29.73,ESE,107,0.0,0.0,87,0.00,,---,0.00,VWS V14.01,2013-07-23 09:50:00,
2013-07-23 05:51:00,75.1,71.0,29.73,ESE,107,0.0,0.0,87,0.00,,---,0.00,VWS V14.01,2013-07-23 09:51:00,
2013-07-23 05:55:00,75.1,70.6,29.73,NE,44,0.0,0.0,86,0.00,,---,0.00,VWS V14.01,2013-07-23 09:55:00,
2013-07-23 05:56:00,75.1,70.6,29.73,NE,44,0.0,0.0,86,0.00,,---,0.00,VWS V14.01,2013-07-23 09:56:00,
2013-07-23 06:00:00,74.9,70.8,29.72,ESE,117,0.0,2.0,87,0.00,,---,0.00,VWS V14.01,2013-07-23 10:00:00,
2013-07-23 06:01:00,75.3,71.2,29.72,NE,48,0.0,0.0,87,0.00,,---,0.00,VWS V14.01,2013-07-23 10:01:00,
2013-07-23 06:05:00,75.3,71.2,29.72,East,85,0.0,2.0,87,0.00,,---,0.00,VWS V14.01,2013-07-23 10:05:00,
2013-07-23 06:06:00,75.3,71.2,29.72,East,85,0.0,0.0,87,0.00,,---,0.00,VWS V14.01,2013-07-23 10:06:00,
2013-07-23 06:10:00,74.9,70.8,29.72,ESE,120,0.0,0.0,87,0.00,,---,0.00,VWS V14.01,2013-07-23 10:10:00,
2013-07-23 06:11:00,75.3,71.2,29.72,East,85,0.0,0.0,87,0.00,,---,0.00,VWS V14.01,2013-07-23 10:11:00,
2013-07-23 06:15:00,75.1,71.0,29.72,ESE,120,0.0,0.0,87,0.00,,---,0.00,VWS V14.01,2013-07-23 10:15:00,
2013-07-23 06:16:00,75.3,70.8,29.73,East,86,0.0,0.0,86,0.00,,---,0.00,VWS V14.01,2013-07-23 10:16:00,
2013-07-23 06:20:00,75.3,70.8,29.73,East,85,0.0,0.0,86,0.00,,---,0.00,VWS V14.01,2013-07-23 10:20:00,
2013-07-23 06:21:00,75.3,70.8,29.73,East,85,0.0,0.0,86,0.00,,---,0.00,VWS V14.01,2013-07-23 10:21:00,
2013-07-23 06:25:00,75.3,71.2,29.73,East,85,0.0,2.0,87,0.00,,---,0.00,VWS V14.01,2013-07-23 10:25:00,
2013-07-23 06:26:00,75.3,71.2,29.73,East,85,0.0,0.0,87,0.00,,---,0.00,VWS V14.01,2013-07-23 10:26:00,
2013-07-23 06:30:00,75.1,71.0,29.72,ESE,109,0.0,1.0,87,0.00,,---,0.00,VWS V14.01,2013-07-23 10:30:00,
2013-07-23 06:31:00,75.1,71.0,29.73,ENE,78,0.0,0.0,87,0.00,,---,0.00,VWS V14.01,2013-07-23 10:31:00,
2013-07-23 06:35:00,75.1,71.0,29.73,ENE,78,0.0,0.0,87,0.00,,---,0.00,VWS V14.01,2013-07-23 10:35:00,
2013-07-23 06:36:00,75.1,71.0,29.73,ENE,78,0.0,0.0,87,0.00,,---,0.00,VWS V14.01,2013-07-23 10:36:00,
2013-07-23 06:40:00,75.1,70.6,29.73,ENE,78,0.0,0.0,86,0.00,,---,0.00,VWS V14.01,2013-07-23 10:40:00,
2013-07-23 06:41:00,75.1,70.6,29.73,ENE,78,0.0,0.0,86,0.00,,---,0.00,VWS V14.01,2013-07-23 10:41:00,
2013-07-23 06:45:00,75.1,70.6,29.74,East,79,0.0,2.0,86,0.00,,---,0.00,VWS V14.01,2013-07-23 10:45:00,
2013-07-23 06:46:00,75.1,70.6,29.74,East,79,0.0,0.0,86,0.00,,---,0.00,VWS V14.01,2013-07-23 10:46:00,
2013-07-23 06:50:00,75.1,70.6,29.74,East,79,0.0,0.0,86,0.00,,---,0.00,VWS V14.01,2013-07-23 10:50:00,
2013-07-23 06:51:00,75.1,70.6,29.74,East,79,0.0,0.0,86,0.00,,---,0.00,VWS V14.01,2013-07-23 10:51:00,
2013-07-23 06:55:00,75.1,70.6,29.74,ENE,78,0.0,2.0,86,0.00,,---,0.00,VWS V14.01,2013-07-23 10:55:00,
2013-07-23 06:56:00,75.1,70.6,29.74,ENE,78,0.0,0.0,86,0.00,,---,0.00,VWS V14.01,2013-07-23 10:56:00,
2013-07-23 07:00:00,75.1,70.3,29.74,East,80,0.0,0.0,85,0.00,,---,0.00,VWS V14.01,2013-07-23 11:00:00,
2013-07-23 07:01:00,75.1,70.3,29.74,East,80,0.0,0.0,85,0.00,,---,0.00,VWS V14.01,2013-07-23 11:01:00,
2013-07-23 07:05:00,75.3,70.5,29.74,ENE,68,0.0,0.0,85,0.00,,---,0.00,VWS V14.01,2013-07-23 11:05:00,
2013-07-23 07:06:00,75.3,70.5,29.74,ENE,68,0.0,0.0,85,0.00,,---,0.00,VWS V14.01,2013-07-23 11:06:00,
2013-07-23 07:10:00,75.3,70.5,29.74,ESE,103,0.0,2.0,85,0.00,,---,0.00,VWS V14.01,2013-07-23 11:10:00,
2013-07-23 07:11:00,75.1,70.3,29.74,ESE,103,0.0,0.0,85,0.00,,---,0.00,VWS V14.01,2013-07-23 11:11:00,
2013-07-23 07:15:00,75.1,70.6,29.74,ESE,110,0.0,2.0,86,0.00,,---,0.00,VWS V14.01,2013-07-23 11:15:00,
2013-07-23 07:16:00,75.1,70.6,29.74,ESE,110,0.0,0.0,86,0.00,,---,0.00,VWS V14.01,2013-07-23 11:16:00,
2013-07-23 07:20:00,75.1,70.6,29.74,ENE,72,0.0,5.0,86,0.00,,---,0.00,VWS V14.01,2013-07-23 11:20:00,
2013-07-23 07:21:00,75.1,70.6,29.74,ENE,72,0.0,0.0,86,0.00,,---,0.00,VWS V14.01,2013-07-23 11:21:00,
2013-07-23 07:25:00,75.1,70.6,29.74,ENE,72,0.0,0.0,86,0.00,,---,0.00,VWS V14.01,2013-07-23 11:25:00,
2013-07-23 07:26:00,75.1,70.6,29.74,ENE,72,0.0,0.0,86,0.00,,---,0.00,VWS V14.01,2013-07-23 11:26:00,
2013-07-23 07:30:00,75.1,70.6,29.74,ENE,75,0.0,2.0,86,0.00,,---,0.00,VWS V14.01,2013-07-23 11:30:00,
2013-07-23 07:31:00,75.1,70.6,29.74,ENE,75,0.0,0.0,86,0.00,,---,0.00,VWS V14.01,2013-07-23 11:31:00,
2013-07-23 07:35:00,75.1,70.6,29.74,ENE,78,0.0,1.0,86,0.00,,---,0.00,VWS V14.01,2013-07-23 11:35:00,
2013-07-23 07:36:00,75.1,70.6,29.74,ENE,78,0.0,0.0,86,0.00,,---,0.00,VWS V14.01,2013-07-23 11:36:00,
2013-07-23 07:40:00,75.3,71.2,29.74,ENE,78,0.0,0.0,87,0.00,,---,0.00,VWS V14.01,2013-07-23 11:40:00,
2013-07-23 07:41:00,75.3,71.2,29.74,East,80,0.0,0.0,87,0.00,,---,0.00,VWS V14.01,2013-07-23 11:41:00,
2013-07-23 07:45:00,75.3,71.2,29.75,NE,34,0.0,2.0,87,0.00,,---,0.00,VWS V14.01,2013-07-23 11:45:00,
2013-07-23 07:46:00,75.3,71.2,29.75,NE,34,0.0,0.0,87,0.00,,---,0.00,VWS V14.01,2013-07-23 11:46:00,
2013-07-23 07:50:00,75.4,70.9,29.75,East,83,0.0,0.0,86,0.00,,---,0.00,VWS V14.01,2013-07-23 11:50:00,
2013-07-23 07:51:00,75.4,70.9,29.75,East,83,0.0,0.0,86,0.00,,---,0.00,VWS V14.01,2013-07-23 11:51:00,
2013-07-23 07:55:00,75.4,70.9,29.75,East,82,0.0,1.0,86,0.00,,---,0.00,VWS V14.01,2013-07-23 11:55:00,
2013-07-23 07:56:00,75.4,70.9,29.75,East,82,0.0,0.0,86,0.00,,---,0.00,VWS V14.01,2013-07-23 11:56:00,
2013-07-23 08:00:00,75.6,70.8,29.75,South,176,1.0,1.0,85,0.00,,---,0.00,VWS V14.01,2013-07-23 12:00:00,
2013-07-23 08:01:00,75.6,70.8,29.75,South,176,1.0,1.0,85,0.00,,---,0.00,VWS V14.01,2013-07-23 12:01:00,
2013-07-23 08:05:00,75.6,70.8,29.75,South,172,0.0,1.0,85,0.00,,---,0.00,VWS V14.01,2013-07-23 12:05:00,
2013-07-23 08:06:00,75.8,71.0,29.75,South,172,0.0,0.0,85,0.00,,---,0.00,VWS V14.01,2013-07-23 12:06:00,
2013-07-23 08:10:00,75.8,71.0,29.75,South,171,0.0,0.0,85,0.00,,---,0.00,VWS V14.01,2013-07-23 12:10:00,
2013-07-23 08:11:00,75.8,71.0,29.75,South,171,0.0,0.0,85,0.00,,---,0.00,VWS V14.01,2013-07-23 12:11:00,
2013-07-23 08:15:00,75.8,71.0,29.75,East,96,0.0,4.0,85,0.00,,---,0.00,VWS V14.01,2013-07-23 12:15:00,
2013-07-23 08:16:00,75.8,71.0,29.75,East,96,0.0,0.0,85,0.00,,---,0.00,VWS V14.01,2013-07-23 12:16:00,
2013-07-23 08:20:00,76.0,71.2,29.75,ENE,78,0.0,2.0,85,0.00,,---,0.00,VWS V14.01,2013-07-23 12:20:00,
2013-07-23 08:21:00,76.0,71.2,29.75,ENE,78,0.0,0.0,85,0.00,,---,0.00,VWS V14.01,2013-07-23 12:21:00,
2013-07-23 08:25:00,76.1,71.3,29.75,ENE,75,0.0,0.0,85,0.00,,---,0.00,VWS V14.01,2013-07-23 12:25:00,
2013-07-23 08:26:00,76.1,71.3,29.75,ENE,75,0.0,0.0,85,0.00,,---,0.00,VWS V14.01,2013-07-23 12:26:00,
2013-07-23 08:30:00,76.3,71.1,29.75,ESE,112,0.0,0.0,84,0.00,,---,0.00,VWS V14.01,2013-07-23 12:30:00,
2013-07-23 08:31:00,76.3,71.1,29.75,ESE,112,0.0,0.0,84,0.00,,---,0.00,VWS V14.01,2013-07-23 12:31:00,
2013-07-23 08:35:00,76.5,71.0,29.75,ESE,102,0.0,6.0,83,0.00,,---,0.00,VWS V14.01,2013-07-23 12:35:00,
2013-07-23 08:36:00,76.5,71.0,29.75,ESE,102,0.0,0.0,83,0.00,,---,0.00,VWS V14.01,2013-07-23 12:36:00,
2013-07-23 08:40:00,76.8,71.2,29.75,ESE,110,2.0,2.0,83,0.00,,---,0.00,VWS V14.01,2013-07-23 12:40:00,
2013-07-23 08:41:00,76.8,71.2,29.75,ESE,110,2.0,2.0,83,0.00,,---,0.00,VWS V14.01,2013-07-23 12:41:00,
2013-07-23 08:45:00,77.4,71.1,29.75,ENE,73,0.0,5.0,81,0.00,,---,0.00,VWS V14.01,2013-07-23 12:45:00,
2013-07-23 08:46:00,77.4,71.1,29.75,ENE,73,0.0,0.0,81,0.00,,---,0.00,VWS V14.01,2013-07-23 12:46:00,
2013-07-23 08:50:00,77.4,71.1,29.75,ENE,73,0.0,0.0,81,0.00,,---,0.00,VWS V14.01,2013-07-23 12:50:00,
2013-07-23 08:51:00,77.4,71.1,29.75,ENE,73,0.0,0.0,81,0.00,,---,0.00,VWS V14.01,2013-07-23 12:51:00,
2013-07-23 08:55:00,77.4,71.1,29.75,ENE,76,0.0,5.0,81,0.00,,---,0.00,VWS V14.01,2013-07-23 12:55:00,
2013-07-23 08:56:00,77.4,71.1,29.75,ENE,75,0.0,0.0,81,0.00,,---,0.00,VWS V14.01,2013-07-23 12:56:00,
2013-07-23 09:00:00,77.4,71.5,29.75,ENE,75,0.0,0.0,82,0.00,,---,0.00,VWS V14.01,2013-07-23 13:00:00,
2013-07-23 09:01:00,77.4,71.5,29.75,ENE,75,0.0,0.0,82,0.00,,---,0.00,VWS V14.01,2013-07-23 13:01:00,
2013-07-23 09:05:00,77.6,71.7,29.75,ENE,78,0.0,2.0,82,0.00,,---,0.00,VWS V14.01,2013-07-23 13:05:00,
2013-07-23 09:06:00,77.6,71.7,29.75,ENE,78,0.0,0.0,82,0.00,,---,0.00,VWS V14.01,2013-07-23 13:06:00,
2013-07-23 09:10:00,77.7,71.4,29.75,East,86,0.0,5.0,81,0.00,,---,0.00,VWS V14.01,2013-07-23 13:10:00,
2013-07-23 09:11:00,77.7,71.4,29.75,East,86,0.0,5.0,81,0.00,,---,0.00,VWS V14.01,2013-07-23 13:11:00,
2013-07-23 09:15:00,78.1,71.1,29.75,NE,34,0.0,1.0,79,0.00,,---,0.00,VWS V14.01,2013-07-23 13:15:00,
2013-07-23 09:16:00,78.1,71.1,29.75,NE,34,0.0,0.0,79,0.00,,---,0.00,VWS V14.01,2013-07-23 13:16:00,
2013-07-23 09:20:00,78.5,71.8,29.75,NE,41,0.0,0.0,80,0.00,,---,0.00,VWS V14.01,2013-07-23 13:20:00,
2013-07-23 09:21:00,78.5,71.8,29.75,NE,40,0.0,0.0,80,0.00,,---,0.00,VWS V14.01,2013-07-23 13:21:00,
2013-07-23 09:25:00,78.6,71.6,29.75,ENE,64,0.0,2.0,79,0.00,,---,0.00,VWS V14.01,2013-07-23 13:25:00,
2013-07-23 09:26:00,78.6,71.6,29.75,ENE,64,0.0,2.0,79,0.00,,---,0.00,VWS V14.01,2013-07-23 13:26:00,
2013-07-23 09:30:00,78.8,71.4,29.74,ENE,64,0.0,0.0,78,0.00,,---,0.00,VWS V14.01,2013-07-23 13:30:00,
2013-07-23 09:31:00,78.8,71.4,29.74,ENE,64,0.0,0.0,78,0.00,,---,0.00,VWS V14.01,2013-07-23 13:31:00,
2013-07-23 09:35:00,79.2,71.8,29.74,SE,143,0.0,7.0,78,0.00,,---,0.00,VWS V14.01,2013-07-23 13:35:00,
2013-07-23 09:36:00,79.2,71.8,29.74,SE,143,0.0,0.0,78,0.00,,---,0.00,VWS V14.01,2013-07-23 13:36:00,
2013-07-23 09:40:00,79.4,71.6,29.74,NE,37,0.0,3.0,77,0.00,,---,0.00,VWS V14.01,2013-07-23 13:40:00,
2013-07-23 09:41:00,79.4,71.6,29.74,NE,37,0.0,3.0,77,0.00,,---,0.00,VWS V14.01,2013-07-23 13:41:00,
2013-07-23 09:45:00,77.4,71.1,29.75,ENE,73,0.0,5.0,81,0.00,,---,0.00,VWS V14.01,2013-07-23 13:45:00,
2013-07-23 09:46:00,79.4,71.6,29.74,ENE,76,0.0,0.0,77,0.00,,---,0.00,VWS V14.01,2013-07-23 13:46:00,
2013-07-23 09:50:00,77.4,71.1,29.75,ENE,73,0.0,0.0,81,0.00,,---,0.00,VWS V14.01,2013-07-23 13:50:00,
2013-07-23 09:51:00,79.6,71.0,29.74,East,86,0.0,0.0,75,0.00,,---,0.00,VWS V14.01,2013-07-23 13:51:00,
2013-07-23 09:55:00,79.9,71.3,29.74,NE,44,0.0,0.0,75,0.00,,---,0.00,VWS V14.01,2013-07-23 13:55:00,
2013-07-23 09:56:00,79.9,71.3,29.74,NE,44,0.0,0.0,75,0.00,,---,0.00,VWS V14.01,2013-07-23 13:56:00,
2013-07-23 10:00:00,80.1,71.5,29.73,NE,35,0.0,3.0,75,0.00,,---,0.00,VWS V14.01,2013-07-23 14:00:00,
2013-07-23 10:01:00,80.1,71.5,29.73,NE,35,0.0,0.0,75,0.00,,---,0.00,VWS V14.01,2013-07-23 14:01:00,
2013-07-23 10:05:00,80.5,71.8,29.73,NE,45,0.0,3.0,75,0.00,,---,0.00,VWS V14.01,2013-07-23 14:05:00,
2013-07-23 10:06:00,80.5,71.8,29.73,NE,45,0.0,0.0,75,0.00,,---,0.00,VWS V14.01,2013-07-23 14:06:00,
2013-07-23 10:10:00,77.7,71.4,29.75,East,86,0.0,5.0,81,0.00,,---,0.00,VWS V14.01,2013-07-23 14:10:00,
2013-07-23 10:11:00,80.7,71.2,29.73,North,0,0.0,0.0,73,0.00,,---,0.00,VWS V14.01,2013-07-23 14:11:00,
2013-07-23 10:15:00,81.1,72.0,29.73,NNE,28,0.0,0.0,74,0.00,,---,0.00,VWS V14.01,2013-07-23 14:15:00,
2013-07-23 10:16:00,81.1,72.0,29.73,NNE,28,0.0,0.0,74,0.00,,---,0.00,VWS V14.01,2013-07-23 14:16:00,
2013-07-23 10:20:00,81.4,71.1,29.73,NNE,25,0.0,3.0,71,0.00,,---,0.00,VWS V14.01,2013-07-23 14:20:00,
2013-07-23 10:21:00,81.4,71.1,29.73,NNE,25,0.0,3.0,71,0.00,,---,0.00,VWS V14.01,2013-07-23 14:21:00,
2013-07-23 10:25:00,81.6,71.7,29.73,NNE,18,0.0,0.0,72,0.00,,---,0.00,VWS V14.01,2013-07-23 14:25:00,
2013-07-23 10:26:00,81.6,71.7,29.73,NNE,18,0.0,0.0,72,0.00,,---,0.00,VWS V14.01,2013-07-23 14:26:00,
2013-07-23 10:30:00,82.0,71.3,29.73,ENE,62,0.0,2.0,70,0.00,,---,0.00,VWS V14.01,2013-07-23 14:30:00,
2013-07-23 10:31:00,82.0,71.3,29.73,ENE,62,0.0,0.0,70,0.00,,---,0.00,VWS V14.01,2013-07-23 14:31:00,
2013-07-23 10:35:00,82.4,72.1,29.73,ENE,58,0.0,0.0,71,0.00,,---,0.00,VWS V14.01,2013-07-23 14:35:00,
2013-07-23 10:36:00,82.4,72.1,29.73,ENE,58,0.0,0.0,71,0.00,,---,0.00,VWS V14.01,2013-07-23 14:36:00,
2013-07-23 10:40:00,82.6,72.2,29.73,North,0,0.0,1.0,71,0.00,,---,0.00,VWS V14.01,2013-07-23 14:40:00,
2013-07-23 10:41:00,82.6,71.4,29.73,North,0,0.0,0.0,69,0.00,,---,0.00,VWS V14.01,2013-07-23 14:41:00,
2013-07-23 10:45:00,82.8,72.0,29.73,East,86,0.0,1.0,70,0.00,,---,0.00,VWS V14.01,2013-07-23 14:45:00,
2013-07-23 10:46:00,82.8,72.0,29.73,East,86,0.0,1.0,70,0.00,,---,0.00,VWS V14.01,2013-07-23 14:46:00,
2013-07-23 10:50:00,83.0,70.9,29.73,ENE,58,0.0,1.0,67,0.00,,---,0.00,VWS V14.01,2013-07-23 14:50:00,
2013-07-23 10:51:00,83.0,70.9,29.73,ENE,58,0.0,0.0,67,0.00,,---,0.00,VWS V14.01,2013-07-23 14:51:00,
2013-07-23 10:55:00,83.4,71.7,29.73,ENE,58,0.0,0.0,68,0.00,,---,0.00,VWS V14.01,2013-07-23 14:55:00,
2013-07-23 10:56:00,83.4,71.7,29.73,ENE,58,0.0,0.0,68,0.00,,---,0.00,VWS V14.01,2013-07-23 14:56:00,
2013-07-23 11:00:00,83.6,71.5,29.73,NE,38,0.0,1.0,67,0.00,,---,0.00,VWS V14.01,2013-07-23 15:00:00,
2013-07-23 11:01:00,83.6,71.5,29.73,NE,38,0.0,1.0,67,0.00,,---,0.00,VWS V14.01,2013-07-23 15:01:00,
2013-07-23 11:05:00,84.0,71.9,29.73,NE,37,0.0,0.0,67,0.00,,---,0.00,VWS V14.01,2013-07-23 15:05:00,
2013-07-23 11:06:00,84.0,71.9,29.73,NE,37,0.0,0.0,67,0.00,,---,0.00,VWS V14.01,2013-07-23 15:06:00,
2013-07-23 11:10:00,84.1,70.6,29.73,ENE,76,0.0,2.0,64,0.00,,---,0.00,VWS V14.01,2013-07-23 15:10:00,
2013-07-23 11:11:00,84.1,70.6,29.73,ENE,76,0.0,2.0,64,0.00,,---,0.00,VWS V14.01,2013-07-23 15:11:00,
2013-07-23 11:15:00,81.1,72.0,29.73,NNE,28,0.0,0.0,74,0.00,,---,0.00,VWS V14.01,2013-07-23 15:15:00,
2013-07-23 11:16:00,84.5,71.0,29.73,East,93,0.0,3.0,64,0.00,,---,0.00,VWS V14.01,2013-07-23 15:16:00,
2013-07-23 11:20:00,84.7,71.2,29.73,ENE,69,0.0,5.0,64,0.00,,---,0.00,VWS V14.01,2013-07-23 15:20:00,
2013-07-23 11:21:00,84.7,71.2,29.73,ENE,69,0.0,5.0,64,0.00,,---,0.00,VWS V14.01,2013-07-23 15:21:00,
2013-07-23 11:25:00,84.9,70.4,29.73,NNE,27,0.0,1.0,62,0.00,,---,0.00,VWS V14.01,2013-07-23 15:25:00,
2013-07-23 11:26:00,84.9,70.4,29.73,NNE,27,0.0,1.0,62,0.00,,---,0.00,VWS V14.01,2013-07-23 15:26:00,
2013-07-23 11:30:00,85.1,70.2,29.72,ESE,114,0.0,1.0,61,0.00,,---,0.00,VWS V14.01,2013-07-23 15:30:00,
2013-07-23 11:31:00,85.1,70.2,29.72,ESE,114,0.0,1.0,61,0.00,,---,0.00,VWS V14.01,2013-07-23 15:31:00,
2013-07-23 11:35:00,85.5,71.0,29.72,North,10,0.0,3.0,62,0.00,,---,0.00,VWS V14.01,2013-07-23 15:35:00,
2013-07-23 11:36:00,85.5,71.0,29.72,North,10,0.0,3.0,62,0.00,,---,0.00,VWS V14.01,2013-07-23 15:36:00,
2013-07-23 11:40:00,85.9,71.4,29.72,North,11,0.0,1.0,62,0.00,,---,0.00,VWS V14.01,2013-07-23 15:40:00,
2013-07-23 11:41:00,85.9,71.4,29.72,North,11,0.0,1.0,62,0.00,,---,0.00,VWS V14.01,2013-07-23 15:41:00,
2013-07-23 11:45:00,86.1,71.6,29.73,East,96,0.0,3.0,62,0.00,,---,0.00,VWS V14.01,2013-07-23 15:45:00,
2013-07-23 11:46:00,86.1,71.6,29.73,East,96,0.0,3.0,62,0.00,,---,0.00,VWS V14.01,2013-07-23 15:46:00,
2013-07-23 11:50:00,85.7,71.7,29.73,East,95,0.0,0.0,63,0.00,,---,0.00,VWS V14.01,2013-07-23 15:50:00,
2013-07-23 11:51:00,85.7,71.7,29.73,East,95,0.0,0.0,63,0.00,,---,0.00,VWS V14.01,2013-07-23 15:51:00,
2013-07-23 11:55:00,86.1,69.6,29.73,ENE,58,0.0,2.0,58,0.00,,---,0.00,VWS V14.01,2013-07-23 15:55:00,
2013-07-23 11:56:00,86.1,69.6,29.73,ENE,58,0.0,2.0,58,0.00,,---,0.00,VWS V14.01,2013-07-23 15:56:00,
2013-07-23 12:00:00,86.3,71.8,29.73,NNE,18,0.0,1.0,62,0.00,,---,0.00,VWS V14.01,2013-07-23 16:00:00,
2013-07-23 12:01:00,86.3,71.8,29.73,NNE,18,0.0,1.0,62,0.00,,---,0.00,VWS V14.01,2013-07-23 16:01:00,
2013-07-23 12:05:00,86.5,71.5,29.73,NNE,18,0.0,0.0,61,0.00,,---,0.00,VWS V14.01,2013-07-23 16:05:00,
2013-07-23 12:06:00,86.5,71.5,29.73,NNE,18,0.0,0.0,61,0.00,,---,0.00,VWS V14.01,2013-07-23 16:06:00,
2013-07-23 12:10:00,86.7,71.2,29.73,NNE,23,0.0,0.0,60,0.00,,---,0.00,VWS V14.01,2013-07-23 16:10:00,
2013-07-23 12:11:00,86.7,71.2,29.73,NNE,23,0.0,0.0,60,0.00,,---,0.00,VWS V14.01,2013-07-23 16:11:00,
2013-07-23 12:15:00,84.5,71.0,29.73,East,93,0.0,3.0,64,0.00,,---,0.00,VWS V14.01,2013-07-23 16:15:00,
2013-07-23 12:16:00,87.2,71.1,29.72,NE,44,0.0,1.0,59,0.00,,---,0.00,VWS V14.01,2013-07-23 16:16:00,
2013-07-23 12:20:00,87.2,71.1,29.72,NNE,32,0.0,0.0,59,0.00,,---,0.00,VWS V14.01,2013-07-23 16:20:00,
2013-07-23 12:21:00,87.2,71.1,29.72,NNE,32,0.0,0.0,59,0.00,,---,0.00,VWS V14.01,2013-07-23 16:21:00,
2013-07-23 12:25:00,87.6,72.0,29.72,NE,34,0.0,0.0,60,0.00,,---,0.00,VWS V14.01,2013-07-23 16:25:00,
2013-07-23 12:26:00,87.6,72.0,29.72,NE,34,0.0,0.0,60,0.00,,---,0.00,VWS V14.01,2013-07-23 16:26:00,
2013-07-23 12:30:00,87.4,71.8,29.72,NE,41,0.0,2.0,60,0.00,,---,0.00,VWS V14.01,2013-07-23 16:30:00,
2013-07-23 12:31:00,87.4,71.8,29.72,NE,41,0.0,2.0,60,0.00,,---,0.00,VWS V14.01,2013-07-23 16:31:00,
2013-07-23 12:35:00,87.8,71.7,29.72,NNE,13,0.0,0.0,59,0.00,,---,0.00,VWS V14.01,2013-07-23 16:35:00,
2013-07-23 12:36:00,87.8,71.7,29.72,NNE,13,0.0,0.0,59,0.00,,---,0.00,VWS V14.01,2013-07-23 16:36:00,
2013-07-23 12:40:00,88.0,71.4,29.72,SSW,192,0.0,0.0,58,0.00,,---,0.00,VWS V14.01,2013-07-23 16:40:00,
2013-07-23 12:41:00,88.0,71.4,29.72,SSW,192,0.0,0.0,58,0.00,,---,0.00,VWS V14.01,2013-07-23 16:41:00,
2013-07-23 12:45:00,87.4,71.8,29.73,SSE,158,0.0,1.0,60,0.00,,---,0.00,VWS V14.01,2013-07-23 16:45:00,
2013-07-23 12:46:00,87.4,71.8,29.73,SSE,158,0.0,1.0,60,0.00,,---,0.00,VWS V14.01,2013-07-23 16:46:00,
2013-07-23 12:50:00,87.4,70.8,29.73,ENE,68,0.0,0.0,58,0.00,,---,0.00,VWS V14.01,2013-07-23 16:50:00,
2013-07-23 12:51:00,87.4,70.8,29.73,ENE,68,0.0,0.0,58,0.00,,---,0.00,VWS V14.01,2013-07-23 16:51:00,
2013-07-23 12:55:00,87.0,71.4,29.73,ENE,68,0.0,0.0,60,0.00,,---,0.00,VWS V14.01,2013-07-23 16:55:00,
2013-07-23 12:56:00,87.0,71.4,29.73,ENE,68,0.0,0.0,60,0.00,,---,0.00,VWS V14.01,2013-07-23 16:56:00,
2013-07-23 13:00:00,87.2,70.1,29.72,East,93,0.0,2.0,57,0.00,,---,0.00,VWS V14.01,2013-07-23 17:00:00,
2013-07-23 13:01:00,87.2,69.6,29.72,East,93,0.0,2.0,56,0.00,,---,0.00,VWS V14.01,2013-07-23 17:01:00,
2013-07-23 13:05:00,87.8,69.6,29.72,East,95,4.0,7.0,55,0.00,,---,0.00,VWS V14.01,2013-07-23 17:05:00,
2013-07-23 13:06:00,87.8,69.6,29.72,East,95,4.0,7.0,55,0.00,,---,0.00,VWS V14.01,2013-07-23 17:06:00,
2013-07-23 13:10:00,88.4,71.8,29.72,ENE,71,0.0,4.0,58,0.00,,---,0.00,VWS V14.01,2013-07-23 17:10:00,
2013-07-23 13:11:00,88.4,71.8,29.72,ENE,68,1.0,4.0,58,0.00,,---,0.00,VWS V14.01,2013-07-23 17:11:00,
2013-07-23 13:15:00,87.2,71.1,29.72,NE,44,0.0,1.0,59,0.00,,---,0.00,VWS V14.01,2013-07-23 17:15:00,
2013-07-23 13:16:00,88.8,70.0,29.71,NE,38,0.0,0.0,54,0.00,,---,0.00,VWS V14.01,2013-07-23 17:16:00,
2013-07-23 13:20:00,88.4,70.7,29.71,NNW,347,0.0,2.0,56,0.00,,---,0.00,VWS V14.01,2013-07-23 17:20:00,
2013-07-23 13:21:00,88.4,70.7,29.71,NNW,347,0.0,2.0,56,0.00,,---,0.00,VWS V14.01,2013-07-23 17:21:00,
2013-07-23 13:25:00,88.0,71.4,29.71,North,8,0.0,0.0,58,0.00,,---,0.00,VWS V14.01,2013-07-23 17:25:00,
2013-07-23 13:26:00,88.0,71.4,29.71,North,8,0.0,0.0,58,0.00,,---,0.00,VWS V14.01,2013-07-23 17:26:00,
2013-07-23 13:30:00,88.6,69.3,29.71,ESE,114,0.0,5.0,53,0.00,,---,0.00,VWS V14.01,2013-07-23 17:30:00,
2013-07-23 13:31:00,88.6,69.3,29.71,ESE,114,0.0,5.0,53,0.00,,---,0.00,VWS V14.01,2013-07-23 17:31:00,
2013-07-23 13:35:00,88.2,70.5,29.71,ENE,71,0.0,0.0,56,0.00,,---,0.00,VWS V14.01,2013-07-23 17:35:00,
2013-07-23 13:36:00,88.2,70.5,29.71,ENE,71,0.0,0.0,56,0.00,,---,0.00,VWS V14.01,2013-07-23 17:36:00,
2013-07-23 13:40:00,87.6,72.0,29.71,ENE,71,0.0,0.0,60,0.00,,---,0.00,VWS V14.01,2013-07-23 17:40:00,
2013-07-23 13:41:00,87.6,72.0,29.71,ENE,71,0.0,0.0,60,0.00,,---,0.00,VWS V14.01,2013-07-23 17:41:00,
2013-07-23 13:45:00,88.0,71.9,29.71,NNE,28,0.0,1.0,59,0.00,,---,0.00,VWS V14.01,2013-07-23 17:45:00,
2013-07-23 13:46:00,88.0,71.9,29.71,NNE,28,0.0,1.0,59,0.00,,---,0.00,VWS V14.01,2013-07-23 17:46:00,
2013-07-23 13:50:00,88.8,71.1,29.71,SE,126,0.0,1.0,56,0.00,,---,0.00,VWS V14.01,2013-07-23 17:50:00,
2013-07-23 13:51:00,88.8,71.1,29.71,SE,126,0.0,1.0,56,0.00,,---,0.00,VWS V14.01,2013-07-23 17:51:00,
2013-07-23 13:55:00,89.7,72.4,29.71,East,97,0.0,1.0,57,0.00,,---,0.00,VWS V14.01,2013-07-23 17:55:00,
2013-07-23 13:56:00,89.7,72.4,29.71,East,97,0.0,1.0,57,0.00,,---,0.00,VWS V14.01,2013-07-23 17:56:00,
2013-07-23 14:00:00,89.0,71.3,29.71,East,80,0.0,0.0,56,0.00,,---,0.00,VWS V14.01,2013-07-23 18:00:00,
2013-07-23 14:01:00,89.0,71.3,29.71,ENE,75,1.0,1.0,56,0.00,,---,0.00,VWS V14.01,2013-07-23 18:01:00,
2013-07-23 14:05:00,88.4,70.2,29.71,ESE,113,0.0,1.0,55,0.00,,---,0.00,VWS V14.01,2013-07-23 18:05:00,
2013-07-23 14:06:00,88.4,70.2,29.71,ESE,113,0.0,0.0,55,0.00,,---,0.00,VWS V14.01,2013-07-23 18:06:00,
2013-07-23 14:10:00,87.4,70.8,29.71,ESE,109,0.0,0.0,58,0.00,,---,0.00,VWS V14.01,2013-07-23 18:10:00,
2013-07-23 14:11:00,87.4,70.8,29.71,ESE,109,0.0,0.0,58,0.00,,---,0.00,VWS V14.01,2013-07-23 18:11:00,
2013-07-23 14:15:00,88.8,70.0,29.71,NE,38,0.0,0.0,54,0.00,,---,0.00,VWS V14.01,2013-07-23 18:15:00,
2013-07-23 14:16:00,87.2,71.6,29.71,NE,44,0.0,0.0,60,0.00,,---,0.00,VWS V14.01,2013-07-23 18:16:00,
2013-07-23 14:20:00,87.8,71.2,29.71,North,0,0.0,2.0,58,0.00,,---,0.00,VWS V14.01,2013-07-23 18:20:00,
2013-07-23 14:21:00,87.8,71.2,29.71,North,0,0.0,0.0,58,0.00,,---,0.00,VWS V14.01,2013-07-23 18:21:00,
2013-07-23 14:25:00,88.6,70.9,29.71,North,359,0.0,0.0,56,0.00,,---,0.00,VWS V14.01,2013-07-23 18:25:00,
2013-07-23 14:26:00,88.6,70.9,29.71,North,359,0.0,0.0,56,0.00,,---,0.00,VWS V14.01,2013-07-23 18:26:00,
2013-07-23 14:30:00,89.5,72.3,29.70,NNE,20,0.0,0.0,57,0.00,,---,0.00,VWS V14.01,2013-07-23 18:30:00,
2013-07-23 14:31:00,89.5,71.2,29.70,NNE,20,0.0,0.0,55,0.00,,---,0.00,VWS V14.01,2013-07-23 18:31:00,
2013-07-23 14:35:00,89.7,70.9,29.70,ENE,65,0.0,2.0,54,0.00,,---,0.00,VWS V14.01,2013-07-23 18:35:00,
2013-07-23 14:36:00,89.9,71.0,29.70,ENE,62,0.0,1.0,54,0.00,,---,0.00,VWS V14.01,2013-07-23 18:36:00,
2013-07-23 14:40:00,87.6,72.0,29.71,ENE,71,0.0,0.0,60,0.00,,---,0.00,VWS V14.01,2013-07-23 18:40:00,
2013-07-23 14:42:00,89.7,71.4,29.70,NE,54,0.0,0.0,55,0.00,,---,0.00,VWS V14.01,2013-07-23 18:42:00,
2013-07-23 14:45:00,88.8,71.6,29.70,NNE,23,0.0,1.0,57,0.00,,---,0.00,VWS V14.01,2013-07-23 18:45:00,
2013-07-23 14:47:00,88.4,71.2,29.70,NNE,23,0.0,0.0,57,0.00,,---,0.00,VWS V14.01,2013-07-23 18:47:00,
2013-07-23 14:50:00,87.6,72.5,29.70,North,3,0.0,2.0,61,0.00,,---,0.00,VWS V14.01,2013-07-23 18:50:00,
2013-07-23 14:52:00,87.4,71.8,29.70,North,3,0.0,0.0,60,0.00,,---,0.00,VWS V14.01,2013-07-23 18:52:00,
2013-07-23 14:55:00,89.7,72.4,29.71,East,97,0.0,1.0,57,0.00,,---,0.00,VWS V14.01,2013-07-23 18:55:00,
2013-07-23 14:57:00,86.3,70.8,29.70,North,6,5.0,5.0,60,0.00,,---,0.00,VWS V14.01,2013-07-23 18:57:00,
2013-07-23 15:00:00,85.7,71.2,29.70,North,11,0.0,5.0,62,0.00,,---,0.00,VWS V14.01,2013-07-23 19:00:00,
2013-07-23 15:02:00,85.7,72.1,29.70,North,11,0.0,0.0,64,0.00,,---,0.00,VWS V14.01,2013-07-23 19:02:00,
2013-07-23 15:05:00,88.4,70.2,29.71,ESE,113,0.0,1.0,55,0.00,,---,0.00,VWS V14.01,2013-07-23 19:05:00,
2013-07-23 15:07:00,85.7,72.1,29.70,North,11,0.0,0.0,64,0.00,,---,0.00,VWS V14.01,2013-07-23 19:07:00,
2013-07-23 15:10:00,87.4,70.8,29.71,ESE,109,0.0,0.0,58,0.00,,---,0.00,VWS V14.01,2013-07-23 19:10:00,
2013-07-23 15:12:00,86.5,72.4,29.70,NE,47,0.0,0.0,63,0.00,,---,0.00,VWS V14.01,2013-07-23 19:12:00,
2013-07-23 15:15:00,87.2,71.6,29.71,NE,44,0.0,0.0,60,0.00,,---,0.00,VWS V14.01,2013-07-23 19:15:00,
2013-07-23 15:17:00,87.2,72.1,29.69,NE,47,0.0,0.0,61,0.00,,---,0.00,VWS V14.01,2013-07-23 19:17:00,
2013-07-23 15:20:00,87.4,71.3,29.69,NE,47,0.0,0.0,59,0.00,,---,0.00,VWS V14.01,2013-07-23 19:20:00,
2013-07-23 15:22:00,87.4,70.3,29.69,NE,47,0.0,0.0,57,0.00,,---,0.00,VWS V14.01,2013-07-23 19:22:00,
2013-07-23 15:25:00,87.2,71.1,29.69,ENE,61,0.0,1.0,59,0.00,,---,0.00,VWS V14.01,2013-07-23 19:25:00,
2013-07-23 15:27:00,87.2,71.1,29.69,ENE,61,0.0,0.0,59,0.00,,---,0.00,VWS V14.01,2013-07-23 19:27:00,
2013-07-23 15:30:00,87.0,71.9,29.69,ENE,58,0.0,0.0,61,0.00,,---,0.00,VWS V14.01,2013-07-23 19:30:00,
2013-07-23 15:33:00,86.7,70.7,29.69,NE,52,0.0,0.0,59,0.00,,---,0.00,VWS V14.01,2013-07-23 19:33:00,
2013-07-23 15:35:00,86.5,70.5,29.69,NNE,27,0.0,0.0,59,0.00,,---,0.00,VWS V14.01,2013-07-23 19:35:00,
2013-07-23 15:38:00,86.5,71.0,29.69,NNE,28,0.0,0.0,60,0.00,,---,0.00,VWS V14.01,2013-07-23 19:38:00,
2013-07-23 15:40:00,86.7,71.2,29.69,NE,56,0.0,0.0,60,0.00,,---,0.00,VWS V14.01,2013-07-23 19:40:00,
2013-07-23 15:43:00,86.7,71.7,29.69,NE,56,0.0,0.0,61,0.00,,---,0.00,VWS V14.01,2013-07-23 19:43:00,
2013-07-23 15:45:00,88.8,71.6,29.70,NNE,23,0.0,1.0,57,0.00,,---,0.00,VWS V14.01,2013-07-23 19:45:00,
2013-07-23 15:48:00,86.7,71.7,29.68,NE,56,0.0,0.0,61,0.00,,---,0.00,VWS V14.01,2013-07-23 19:48:00,
2013-07-23 15:50:00,86.5,71.9,29.68,North,7,0.0,1.0,62,0.00,,---,0.00,VWS V14.01,2013-07-23 19:50:00,
2013-07-23 15:53:00,86.5,71.9,29.68,North,7,0.0,0.0,62,0.00,,---,0.00,VWS V14.01,2013-07-23 19:53:00,
2013-07-23 15:55:00,86.5,71.9,29.68,North,7,0.0,0.0,62,0.00,,---,0.00,VWS V14.01,2013-07-23 19:55:00,
2013-07-23 15:58:00,86.5,71.9,29.68,North,7,0.0,0.0,62,0.00,,---,0.00,VWS V14.01,2013-07-23 19:58:00,
2013-07-23 16:00:00,86.5,71.9,29.67,ENE,73,1.0,3.0,62,0.00,,---,0.00,VWS V14.01,2013-07-23 20:00:00,
2013-07-23 16:03:00,86.7,70.2,29.67,North,6,0.0,4.0,58,0.00,,---,0.00,VWS V14.01,2013-07-23 20:03:00,
2013-07-23 16:05:00,86.7,72.1,29.67,ENE,59,0.0,4.0,62,0.00,,---,0.00,VWS V14.01,2013-07-23 20:05:00,
2013-07-23 16:08:00,86.5,71.0,29.67,NNE,28,0.0,0.0,60,0.00,,---,0.00,VWS V14.01,2013-07-23 20:08:00,
2013-07-23 16:10:00,86.3,69.8,29.67,NNE,20,0.0,0.0,58,0.00,,---,0.00,VWS V14.01,2013-07-23 20:10:00,
2013-07-23 16:14:00,86.3,70.8,29.67,NNE,17,0.0,0.0,60,0.00,,---,0.00,VWS V14.01,2013-07-23 20:14:00,
2013-07-23 16:15:00,87.0,71.9,29.69,NE,47,0.0,0.0,61,0.00,,---,0.00,VWS V14.01,2013-07-23 20:15:00,
2013-07-23 16:19:00,86.3,69.8,29.67,NNE,17,0.0,0.0,58,0.00,,---,0.00,VWS V14.01,2013-07-23 20:19:00,
2013-07-23 16:20:00,86.3,71.3,29.67,East,97,0.0,1.0,61,0.00,,---,0.00,VWS V14.01,2013-07-23 20:20:00,
2013-07-23 16:24:00,86.3,70.3,29.67,NE,52,0.0,0.0,59,0.00,,---,0.00,VWS V14.01,2013-07-23 20:24:00,
2013-07-23 16:25:00,86.3,70.8,29.67,NE,52,0.0,0.0,60,0.00,,---,0.00,VWS V14.01,2013-07-23 20:25:00,
2013-07-23 16:29:00,86.1,70.1,29.67,NNE,23,0.0,0.0,59,0.00,,---,0.00,VWS V14.01,2013-07-23 20:29:00,
2013-07-23 16:30:00,86.1,69.6,29.66,North,3,0.0,3.0,58,0.00,,---,0.00,VWS V14.01,2013-07-23 20:30:00,
2013-07-23 16:34:00,85.9,68.9,29.66,NNE,13,0.0,1.0,57,0.00,,---,0.00,VWS V14.01,2013-07-23 20:34:00,
2013-07-23 16:35:00,86.1,68.6,29.66,NE,38,0.0,1.0,56,0.00,,---,0.00,VWS V14.01,2013-07-23 20:35:00,
2013-07-23 16:39:00,86.3,68.2,29.66,SSE,152,0.0,2.0,55,0.00,,---,0.00,VWS V14.01,2013-07-23 20:39:00,
2013-07-23 16:40:00,86.1,69.6,29.66,SSE,152,0.0,2.0,58,0.00,,---,0.00,VWS V14.01,2013-07-23 20:40:00,
2013-07-23 16:44:00,86.1,70.1,29.66,NNE,18,0.0,1.0,59,0.00,,---,0.00,VWS V14.01,2013-07-23 20:44:00,
2013-07-23 16:45:00,86.1,69.1,29.66,ENE,71,0.0,2.0,57,0.00,,---,0.00,VWS V14.01,2013-07-23 20:45:00,
2013-07-23 16:49:00,85.9,68.9,29.66,ENE,61,0.0,1.0,57,0.00,,---,0.00,VWS V14.01,2013-07-23 20:49:00,
2013-07-23 16:50:00,86.1,69.6,29.66,ENE,61,0.0,1.0,58,0.00,,---,0.00,VWS V14.01,2013-07-23 20:50:00,
2013-07-23 16:54:00,86.1,70.6,29.66,ENE,61,0.0,0.0,60,0.00,,---,0.00,VWS V14.01,2013-07-23 20:54:00,
2013-07-23 16:55:00,86.1,70.1,29.66,ENE,61,0.0,0.0,59,0.00,,---,0.00,VWS V14.01,2013-07-23 20:55:00,
2013-07-23 16:59:00,85.9,68.9,29.66,North,356,0.0,3.0,57,0.00,,---,0.00,VWS V14.01,2013-07-23 20:59:00,
2013-07-23 17:00:00,85.9,67.9,29.66,NE,49,0.0,3.0,55,0.00,,---,0.00,VWS V14.01,2013-07-23 21:00:00,
2013-07-23 17:04:00,85.9,69.9,29.66,NNE,32,0.0,1.0,59,0.00,,---,0.00,VWS V14.01,2013-07-23 21:04:00,
2013-07-23 17:05:00,85.7,70.2,29.66,NNE,28,0.0,1.0,60,0.00,,---,0.00,VWS V14.01,2013-07-23 21:05:00,
2013-07-23 17:09:00,85.7,70.2,29.66,NNE,28,0.0,0.0,60,0.00,,---,0.00,VWS V14.01,2013-07-23 21:09:00,
2013-07-23 17:10:00,85.7,70.7,29.66,NNE,28,0.0,0.0,61,0.00,,---,0.00,VWS V14.01,2013-07-23 21:10:00,
2013-07-23 17:14:00,85.5,70.0,29.66,NNE,28,0.0,0.0,60,0.00,,---,0.00,VWS V14.01,2013-07-23 21:14:00,
2013-07-23 17:15:00,85.7,70.7,29.67,NNE,28,0.0,0.0,61,0.00,,---,0.00,VWS V14.01,2013-07-23 21:15:00,
2013-07-23 17:19:00,85.7,70.2,29.67,NNE,27,0.0,1.0,60,0.00,,---,0.00,VWS V14.01,2013-07-23 21:19:00,
2013-07-23 17:20:00,85.7,71.7,29.67,NNE,27,0.0,1.0,63,0.00,,---,0.00,VWS V14.01,2013-07-23 21:20:00,
2013-07-23 17:24:00,85.9,71.4,29.67,NNE,30,0.0,0.0,62,0.00,,---,0.00,VWS V14.01,2013-07-23 21:24:00,
2013-07-23 17:25:00,86.3,70.8,29.67,NE,52,0.0,0.0,60,0.00,,---,0.00,VWS V14.01,2013-07-23 21:25:00,
2013-07-23 17:29:00,85.9,72.3,29.67,NNE,30,0.0,0.0,64,0.00,,---,0.00,VWS V14.01,2013-07-23 21:29:00,
2013-07-23 17:30:00,85.9,71.8,29.67,NNE,25,1.0,1.0,63,0.00,,---,0.00,VWS V14.01,2013-07-23 21:30:00,
2013-07-23 17:34:00,85.9,70.4,29.67,NNE,27,0.0,1.0,60,0.00,,---,0.00,VWS V14.01,2013-07-23 21:34:00,
2013-07-23 17:35:00,86.1,68.6,29.66,NE,38,0.0,1.0,56,0.00,,---,0.00,VWS V14.01,2013-07-23 21:35:00,
2013-07-23 17:39:00,85.9,71.4,29.67,NNE,27,0.0,0.0,62,0.00,,---,0.00,VWS V14.01,2013-07-23 21:39:00,
2013-07-23 17:40:00,85.9,71.4,29.67,NNE,27,0.0,0.0,62,0.00,,---,0.00,VWS V14.01,2013-07-23 21:40:00,
2013-07-23 17:44:00,85.9,71.4,29.67,NNE,25,0.0,0.0,62,0.00,,---,0.00,VWS V14.01,2013-07-23 21:44:00,
2013-07-23 17:45:00,85.9,72.3,29.66,NNE,30,0.0,0.0,64,0.00,,---,0.00,VWS V14.01,2013-07-23 21:45:00,
2013-07-23 17:49:00,85.7,71.2,29.66,NNE,30,0.0,0.0,62,0.00,,---,0.00,VWS V14.01,2013-07-23 21:49:00,
2013-07-23 17:50:00,85.7,72.1,29.66,NNE,30,0.0,0.0,64,0.00,,---,0.00,VWS V14.01,2013-07-23 21:50:00,
2013-07-23 17:55:00,85.5,71.9,29.66,NNE,30,0.0,0.0,64,0.00,,---,0.00,VWS V14.01,2013-07-23 21:55:00,
2013-07-23 18:00:00,85.3,71.3,29.66,NNE,27,0.0,0.0,63,0.00,,---,0.00,VWS V14.01,2013-07-23 22:00:00,
2013-07-23 18:05:00,85.3,71.3,29.66,NNE,28,0.0,0.0,63,0.00,,---,0.00,VWS V14.01,2013-07-23 22:05:00,
2013-07-23 18:10:00,85.3,70.8,29.66,NNE,28,0.0,0.0,62,0.00,,---,0.00,VWS V14.01,2013-07-23 22:10:00,
2013-07-23 18:15:00,85.7,70.7,29.67,NNE,28,0.0,0.0,61,0.00,,---,0.00,VWS V14.01,2013-07-23 22:15:00,
2013-07-23 18:16:00,85.3,70.8,29.66,NNE,28,0.0,0.0,62,0.00,,---,0.00,VWS V14.01,2013-07-23 22:16:00,
2013-07-23 18:20:00,85.7,71.7,29.67,NNE,27,0.0,1.0,63,0.00,,---,0.00,VWS V14.01,2013-07-23 22:20:00,
2013-07-23 18:21:00,85.3,71.3,29.66,NNE,28,0.0,0.0,63,0.00,,---,0.00,VWS V14.01,2013-07-23 22:21:00,
2013-07-23 18:25:00,85.9,71.4,29.67,NNE,30,0.0,0.0,62,0.00,,---,0.00,VWS V14.01,2013-07-23 22:25:00,
2013-07-23 18:27:00,85.1,70.6,29.66,NE,38,0.0,0.0,62,0.00,,---,0.00,VWS V14.01,2013-07-23 22:27:00,
2013-07-23 18:30:00,85.9,71.8,29.67,NNE,25,1.0,1.0,63,0.00,,---,0.00,VWS V14.01,2013-07-23 22:30:00,
2013-07-23 18:32:00,84.9,71.4,29.65,NE,38,0.0,0.0,64,0.00,,---,0.00,VWS V14.01,2013-07-23 22:32:00,
2013-07-23 18:35:00,85.9,70.9,29.67,NNE,27,0.0,1.0,61,0.00,,---,0.00,VWS V14.01,2013-07-23 22:35:00,
2013-07-23 18:37:00,84.9,71.4,29.65,NE,38,0.0,0.0,64,0.00,,---,0.00,VWS V14.01,2013-07-23 22:37:00,
2013-07-23 18:40:00,85.9,71.4,29.67,NNE,27,0.0,0.0,62,0.00,,---,0.00,VWS V14.01,2013-07-23 22:40:00,
2013-07-23 18:42:00,84.7,71.2,29.65,NE,38,0.0,0.0,64,0.00,,---,0.00,VWS V14.01,2013-07-23 22:42:00,
2013-07-23 18:45:00,85.9,72.3,29.66,NNE,30,0.0,0.0,64,0.00,,---,0.00,VWS V14.01,2013-07-23 22:45:00,
2013-07-23 18:47:00,84.7,71.6,29.66,NE,38,0.0,0.0,65,0.00,,---,0.00,VWS V14.01,2013-07-23 22:47:00,
2013-07-23 18:50:00,85.7,72.1,29.66,NNE,30,0.0,0.0,64,0.00,,---,0.00,VWS V14.01,2013-07-23 22:50:00,
2013-07-23 18:52:00,84.9,71.8,29.66,NE,38,0.0,0.0,65,0.00,,---,0.00,VWS V14.01,2013-07-23 22:52:00,
2013-07-23 18:55:00,85.5,71.5,29.66,NNE,28,0.0,0.0,63,0.00,,---,0.00,VWS V14.01,2013-07-23 22:55:00,
2013-07-23 18:57:00,84.9,71.4,29.66,NE,38,0.0,0.0,64,0.00,,---,0.00,VWS V14.01,2013-07-23 22:57:00,
2013-07-23 19:00:00,85.3,71.3,29.66,NNE,27,0.0,0.0,63,0.00,,---,0.00,VWS V14.01,2013-07-23 23:00:00,
2013-07-23 19:02:00,84.7,71.6,29.66,NE,38,0.0,0.0,65,0.00,,---,0.00,VWS V14.01,2013-07-23 23:02:00,
2013-07-23 19:05:00,85.3,69.4,29.66,NNE,28,0.0,0.0,59,0.00,,---,0.00,VWS V14.01,2013-07-23 23:05:00,
2013-07-23 19:07:00,84.7,72.1,29.66,NE,38,0.0,0.0,66,0.00,,---,0.00,VWS V14.01,2013-07-23 23:07:00,
2013-07-23 19:10:00,85.3,71.3,29.66,NNE,28,0.0,0.0,63,0.00,,---,0.00,VWS V14.01,2013-07-23 23:10:00,
2013-07-23 19:12:00,84.5,71.9,29.66,NE,38,0.0,0.0,66,0.00,,---,0.00,VWS V14.01,2013-07-23 23:12:00,
2013-07-23 19:15:00,85.3,70.8,29.66,NNE,28,0.0,0.0,62,0.00,,---,0.00,VWS V14.01,2013-07-23 23:15:00,
2013-07-23 19:17:00,84.3,71.7,29.66,NE,38,0.0,0.0,66,0.00,,---,0.00,VWS V14.01,2013-07-23 23:17:00,
2013-07-23 19:20:00,85.3,70.8,29.66,NNE,28,0.0,0.0,62,0.00,,---,0.00,VWS V14.01,2013-07-23 23:20:00,
2013-07-23 19:22:00,84.3,72.2,29.66,NE,38,0.0,0.0,67,0.00,,---,0.00,VWS V14.01,2013-07-23 23:22:00,
2013-07-23 19:25:00,85.1,70.6,29.66,NE,38,0.0,0.0,62,0.00,,---,0.00,VWS V14.01,2013-07-23 23:25:00,
2013-07-23 19:27:00,84.1,72.0,29.66,NE,38,0.0,0.0,67,0.00,,---,0.00,VWS V14.01,2013-07-23 23:27:00,
2013-07-23 19:30:00,85.1,71.6,29.65,NE,38,0.0,0.0,64,0.00,,---,0.00,VWS V14.01,2013-07-23 23:30:00,
2013-07-23 19:32:00,84.0,72.3,29.66,NE,38,0.0,0.0,68,0.00,,---,0.00,VWS V14.01,2013-07-23 23:32:00,
2013-07-23 19:35:00,84.9,71.4,29.65,NE,38,0.0,0.0,64,0.00,,---,0.00,VWS V14.01,2013-07-23 23:35:00,
2013-07-23 19:37:00,83.8,72.1,29.66,NE,38,0.0,0.0,68,0.00,,---,0.00,VWS V14.01,2013-07-23 23:37:00,
2013-07-23 19:40:00,84.7,71.2,29.65,NE,38,0.0,0.0,64,0.00,,---,0.00,VWS V14.01,2013-07-23 23:40:00,
2013-07-23 19:42:00,83.6,72.4,29.66,NE,38,0.0,0.0,69,0.00,,---,0.00,VWS V14.01,2013-07-23 23:42:00,
2013-07-23 19:45:00,84.7,71.2,29.66,NE,38,0.0,0.0,64,0.00,,---,0.00,VWS V14.01,2013-07-23 23:45:00,
2013-07-23 19:47:00,83.4,72.6,29.66,NE,38,0.0,0.0,70,0.00,,---,0.00,VWS V14.01,2013-07-23 23:47:00,
2013-07-23 19:50:00,84.9,72.3,29.66,NE,38,0.0,0.0,66,0.00,,---,0.00,VWS V14.01,2013-07-23 23:50:00,
2013-07-23 19:53:00,83.0,72.2,29.66,NE,38,0.0,0.0,70,0.00,,---,0.00,VWS V14.01,2013-07-23 23:53:00,
2013-07-23 19:55:00,84.7,71.2,29.66,NE,38,0.0,0.0,64,0.00,,---,0.00,VWS V14.01,2013-07-23 23:55:00,
2013-07-23 19:58:00,82.8,72.4,29.66,NE,38,0.0,0.0,71,0.00,,---,0.00,VWS V14.01,2013-07-23 23:58:00,
2013-07-23 20:00:00,84.7,71.6,29.66,NE,38,0.0,0.0,65,0.00,,---,0.00,VWS V14.01,2013-07-24 00:00:00,
2013-07-23 20:03:00,82.4,72.1,29.66,NE,38,0.0,0.0,71,0.00,,---,0.00,VWS V14.01,2013-07-24 00:03:00,
2013-07-23 20:05:00,84.7,71.6,29.66,NE,38,0.0,0.0,65,0.00,,---,0.00,VWS V14.01,2013-07-24 00:05:00,
2013-07-23 20:08:00,82.2,72.3,29.66,NE,38,0.0,0.0,72,0.00,,---,0.00,VWS V14.01,2013-07-24 00:08:00,
2013-07-23 20:10:00,84.5,71.9,29.66,NE,38,0.0,0.0,66,0.00,,---,0.00,VWS V14.01,2013-07-24 00:10:00,
2013-07-23 20:13:00,82.0,71.7,29.66,NE,38,0.0,0.0,71,0.00,,---,0.00,VWS V14.01,2013-07-24 00:13:00,
2013-07-23 20:15:00,84.5,72.3,29.66,NE,38,0.0,0.0,67,0.00,,---,0.00,VWS V14.01,2013-07-24 00:15:00,
2013-07-23 20:18:00,81.8,72.3,29.67,NE,38,0.0,0.0,73,0.00,,---,0.00,VWS V14.01,2013-07-24 00:18:00,
2013-07-23 20:20:00,84.3,72.2,29.66,NE,38,0.0,0.0,67,0.00,,---,0.00,VWS V14.01,2013-07-24 00:20:00,
2013-07-23 20:23:00,81.4,71.9,29.67,NE,38,0.0,0.0,73,0.00,,---,0.00,VWS V14.01,2013-07-24 00:23:00,
2013-07-23 20:25:00,84.1,71.5,29.66,NE,38,0.0,0.0,66,0.00,,---,0.00,VWS V14.01,2013-07-24 00:25:00,
2013-07-23 20:28:00,81.2,71.7,29.67,NE,38,0.0,0.0,73,0.00,,---,0.00,VWS V14.01,2013-07-24 00:28:00,
2013-07-23 20:30:00,84.0,71.9,29.66,NE,38,0.0,0.0,67,0.00,,---,0.00,VWS V14.01,2013-07-24 00:30:00,
2013-07-23 20:33:00,81.1,71.6,29.67,NE,38,0.0,0.0,73,0.00,,---,0.00,VWS V14.01,2013-07-24 00:33:00,
2013-07-23 20:35:00,83.8,72.1,29.66,NE,38,0.0,0.0,68,0.00,,---,0.00,VWS V14.01,2013-07-24 00:35:00,
2013-07-23 20:38:00,80.9,71.8,29.67,NE,38,0.0,0.0,74,0.00,,---,0.00,VWS V14.01,2013-07-24 00:38:00,
2013-07-23 20:40:00,83.6,72.4,29.66,NE,38,0.0,0.0,69,0.00,,---,0.00,VWS V14.01,2013-07-24 00:40:00,
2013-07-23 20:43:00,80.7,71.2,29.67,NE,38,0.0,0.0,73,0.00,,---,0.00,VWS V14.01,2013-07-24 00:43:00,
2013-07-23 20:45:00,83.4,72.6,29.66,NE,38,0.0,0.0,70,0.00,,---,0.00,VWS V14.01,2013-07-24 00:45:00,
2013-07-23 20:48:00,80.5,71.5,29.67,NE,38,0.0,0.0,74,0.00,,---,0.00,VWS V14.01,2013-07-24 00:48:00,
2013-07-23 20:50:00,83.0,72.2,29.66,NE,38,0.0,0.0,70,0.00,,---,0.00,VWS V14.01,2013-07-24 00:50:00,
2013-07-23 20:53:00,80.3,71.3,29.67,NE,38,0.0,0.0,74,0.00,,---,0.00,VWS V14.01,2013-07-24 00:53:00,
2013-07-23 20:55:00,82.8,72.0,29.66,NE,38,0.0,0.0,70,0.00,,---,0.00,VWS V14.01,2013-07-24 00:55:00,
2013-07-23 20:58:00,80.1,71.1,29.67,NE,38,0.0,0.0,74,0.00,,---,0.00,VWS V14.01,2013-07-24 00:58:00,
2013-07-23 21:00:00,82.6,72.2,29.66,NE,38,0.0,0.0,71,0.00,,---,0.00,VWS V14.01,2013-07-24 01:00:00,
2013-07-23 21:03:00,80.1,71.1,29.68,NE,38,0.0,0.0,74,0.00,,---,0.00,VWS V14.01,2013-07-24 01:03:00,
2013-07-23 21:05:00,82.4,72.1,29.66,NE,38,0.0,0.0,71,0.00,,---,0.00,VWS V14.01,2013-07-24 01:05:00,
2013-07-23 21:08:00,79.9,70.9,29.68,NE,38,0.0,0.0,74,0.00,,---,0.00,VWS V14.01,2013-07-24 01:08:00,
2013-07-23 21:10:00,82.2,72.7,29.66,NE,38,0.0,0.0,73,0.00,,---,0.00,VWS V14.01,2013-07-24 01:10:00,
2013-07-23 21:13:00,79.9,71.3,29.68,NE,38,0.0,0.0,75,0.00,,---,0.00,VWS V14.01,2013-07-24 01:13:00,
2013-07-23 21:15:00,81.8,72.3,29.67,NE,38,0.0,0.0,73,0.00,,---,0.00,VWS V14.01,2013-07-24 01:15:00,
2013-07-23 21:18:00,79.8,71.2,29.68,NE,38,0.0,0.0,75,0.00,,---,0.00,VWS V14.01,2013-07-24 01:18:00,
2013-07-23 21:20:00,81.6,72.1,29.67,NE,38,0.0,0.0,73,0.00,,---,0.00,VWS V14.01,2013-07-24 01:20:00,
2013-07-23 21:23:00,79.6,71.4,29.68,NE,38,0.0,0.0,76,0.00,,---,0.00,VWS V14.01,2013-07-24 01:23:00,
2013-07-23 21:25:00,81.4,71.9,29.67,NE,38,0.0,0.0,73,0.00,,---,0.00,VWS V14.01,2013-07-24 01:25:00,
2013-07-23 21:28:00,79.4,71.2,29.68,NE,38,0.0,0.0,76,0.00,,---,0.00,VWS V14.01,2013-07-24 01:28:00,
2013-07-23 21:30:00,81.2,71.7,29.67,NE,38,0.0,0.0,73,0.00,,---,0.00,VWS V14.01,2013-07-24 01:30:00,
2013-07-23 21:34:00,79.0,70.8,29.69,NE,38,0.0,0.0,76,0.00,,---,0.00,VWS V14.01,2013-07-24 01:34:00,
2013-07-23 21:35:00,80.9,71.4,29.67,NE,38,0.0,0.0,73,0.00,,---,0.00,VWS V14.01,2013-07-24 01:35:00,
2013-07-23 21:39:00,78.8,71.0,29.69,NE,38,0.0,0.0,77,0.00,,---,0.00,VWS V14.01,2013-07-24 01:39:00,
2013-07-23 21:40:00,80.7,71.7,29.67,NE,38,0.0,0.0,74,0.00,,---,0.00,VWS V14.01,2013-07-24 01:40:00,
2013-07-23 21:44:00,78.8,71.0,29.69,NE,38,0.0,0.0,77,0.00,,---,0.00,VWS V14.01,2013-07-24 01:44:00,
2013-07-23 21:45:00,80.5,71.5,29.67,NE,38,0.0,0.0,74,0.00,,---,0.00,VWS V14.01,2013-07-24 01:45:00,
2013-07-23 21:49:00,78.8,71.0,29.69,NE,38,0.0,0.0,77,0.00,,---,0.00,VWS V14.01,2013-07-24 01:49:00,
2013-07-23 21:50:00,80.3,71.3,29.67,NE,38,0.0,0.0,74,0.00,,---,0.00,VWS V14.01,2013-07-24 01:50:00,
2013-07-23 21:54:00,78.8,71.0,29.69,NE,38,0.0,0.0,77,0.00,,---,0.00,VWS V14.01,2013-07-24 01:54:00,
2013-07-23 21:55:00,80.3,71.3,29.67,NE,38,0.0,0.0,74,0.00,,---,0.00,VWS V14.01,2013-07-24 01:55:00,
2013-07-23 21:59:00,78.6,70.8,29.69,NE,38,0.0,0.0,77,0.00,,---,0.00,VWS V14.01,2013-07-24 01:59:00,
2013-07-23 22:00:00,80.1,71.1,29.68,NE,38,0.0,0.0,74,0.00,,---,0.00,VWS V14.01,2013-07-24 02:00:00,
2013-07-23 22:04:00,78.6,70.8,29.70,NE,38,0.0,0.0,77,0.00,,---,0.00,VWS V14.01,2013-07-24 02:04:00,
2013-07-23 22:05:00,79.9,71.3,29.68,NE,38,0.0,0.0,75,0.00,,---,0.00,VWS V14.01,2013-07-24 02:05:00,
2013-07-23 22:09:00,78.6,70.8,29.70,NE,38,0.0,0.0,77,0.00,,---,0.00,VWS V14.01,2013-07-24 02:09:00,
2013-07-23 22:10:00,79.9,71.3,29.68,NE,38,0.0,0.0,75,0.00,,---,0.00,VWS V14.01,2013-07-24 02:10:00,
2013-07-23 22:14:00,78.6,70.8,29.70,NE,38,0.0,0.0,77,0.00,,---,0.00,VWS V14.01,2013-07-24 02:14:00,
2013-07-23 22:15:00,79.8,71.2,29.68,NE,38,0.0,0.0,75,0.00,,---,0.00,VWS V14.01,2013-07-24 02:15:00,
2013-07-23 22:19:00,78.6,71.2,29.71,NE,38,0.0,0.0,78,0.00,,---,0.00,VWS V14.01,2013-07-24 02:19:00,
2013-07-23 22:20:00,79.6,71.4,29.68,NE,38,0.0,0.0,76,0.00,,---,0.00,VWS V14.01,2013-07-24 02:20:00,
2013-07-23 22:24:00,78.6,71.2,29.71,NE,38,0.0,0.0,78,0.00,,---,0.00,VWS V14.01,2013-07-24 02:24:00,
2013-07-23 22:25:00,79.4,71.2,29.68,NE,38,0.0,0.0,76,0.00,,---,0.00,VWS V14.01,2013-07-24 02:25:00,
2013-07-23 22:29:00,78.5,71.1,29.71,NE,38,0.0,0.0,78,0.00,,---,0.00,VWS V14.01,2013-07-24 02:29:00,
2013-07-23 22:30:00,79.2,71.0,29.69,NE,38,0.0,0.0,76,0.00,,---,0.00,VWS V14.01,2013-07-24 02:30:00,
2013-07-23 22:34:00,78.5,71.1,29.71,NE,38,0.0,0.0,78,0.00,,---,0.00,VWS V14.01,2013-07-24 02:34:00,
2013-07-23 22:35:00,79.0,70.8,29.69,NE,38,0.0,0.0,76,0.00,,---,0.00,VWS V14.01,2013-07-24 02:35:00,
2013-07-23 22:39:00,78.3,70.9,29.71,NE,38,0.0,0.0,78,0.00,,---,0.00,VWS V14.01,2013-07-24 02:39:00,
2013-07-23 22:40:00,78.8,71.0,29.69,NE,38,0.0,0.0,77,0.00,,---,0.00,VWS V14.01,2013-07-24 02:40:00,
2013-07-23 22:44:00,78.1,70.7,29.71,NE,38,0.0,0.0,78,0.00,,---,0.00,VWS V14.01,2013-07-24 02:44:00,
2013-07-23 22:45:00,78.8,71.0,29.69,NE,38,0.0,0.0,77,0.00,,---,0.00,VWS V14.01,2013-07-24 02:45:00,
2013-07-23 22:50:00,78.1,71.1,29.71,NE,38,0.0,0.0,79,0.00,,---,0.00,VWS V14.01,2013-07-24 02:50:00,
2013-07-23 22:55:00,77.9,70.9,29.71,NE,38,0.0,0.0,79,0.00,,---,0.00,VWS V14.01,2013-07-24 02:55:00,
2013-07-23 23:00:00,77.7,70.7,29.71,NE,38,0.0,0.0,79,0.00,,---,0.00,VWS V14.01,2013-07-24 03:00:00,
2013-07-23 23:05:00,77.6,70.6,29.70,NE,38,0.0,0.0,79,0.00,,---,0.00,VWS V14.01,2013-07-24 03:05:00,
2013-07-23 23:10:00,77.6,70.6,29.70,NE,38,0.0,0.0,79,0.00,,---,0.00,VWS V14.01,2013-07-24 03:10:00,
2013-07-23 23:15:00,77.4,70.8,29.70,NE,38,0.0,0.0,80,0.00,,---,0.00,VWS V14.01,2013-07-24 03:15:00,
2013-07-23 23:20:00,77.4,70.8,29.70,NE,38,0.0,0.0,80,0.00,,---,0.00,VWS V14.01,2013-07-24 03:20:00,
2013-07-23 23:25:00,77.2,70.6,29.70,NE,38,0.0,0.0,80,0.00,,---,0.00,VWS V14.01,2013-07-24 03:25:00,
2013-07-23 23:30:00,77.2,70.6,29.70,NE,38,0.0,0.0,80,0.00,,---,0.00,VWS V14.01,2013-07-24 03:30:00,
2013-07-23 23:35:00,77.2,70.9,29.70,NE,38,0.0,0.0,81,0.00,,---,0.00,VWS V14.01,2013-07-24 03:35:00,
2013-07-23 23:40:00,77.2,70.9,29.70,NE,38,0.0,0.0,81,0.00,,---,0.00,VWS V14.01,2013-07-24 03:40:00,
2013-07-23 23:45:00,77.0,70.7,29.70,NE,38,0.0,0.0,81,0.00,,---,0.00,VWS V14.01,2013-07-24 03:45:00,
2013-07-23 23:50:00,77.0,70.7,29.70,NE,38,0.0,0.0,81,0.00,,---,0.00,VWS V14.01,2013-07-24 03:50:00,
2013-07-23 23:55:00,77.0,70.7,29.70,NE,38,0.0,0.0,81,0.00,,---,0.00,VWS V14.01,2013-07-24 03:55:00,